Mount Vernon, WA

10:50 AM PST on February 23, 2017 (GMT -0800)
Skagit Regional

Weather History for KBVS - November, 2011

Change the Weather History Date:

Monday, November 21, 2011

  Actual Average Record
Temperature  
Mean Temperature 42 °F -  
Max Temperature 51 °F 48 °F 56 °F (1979)
Min Temperature 33 °F 35 °F 10 °F (1985)
Degree Days  
Heating Degree Days 23    
Moisture  
Dew Point 39 °F    
Average Humidity 83    
Maximum Humidity 93    
Minimum Humidity 61    
Precipitation  
Precipitation 0.03 in - - ()
Sea Level Pressure  
Sea Level Pressure 29.65 in    
Wind  
Wind Speed 10 mph (SE)    
Max Wind Speed 24 mph    
Max Gust Speed 34 mph    
Visibility 10 miles    
Events      
Averages and records for this station are not official NWS values.
T = Trace of Precipitation, MM = Missing Value Source: NWS Daily Summary

Daily Weather History Graph

Daily Weather History Graph

Search for Another Location

Airport or City:

Trip Planner

Search our weather history database for the weather conditions in past years. The results will help you decide how hot, cold, wet, or windy it might be!

Date:

Astronomy

Nov. 21, 2011 Rise Set
Actual Time 7:26 AM PST 4:24 PM PST
Civil Twilight 6:51 AM PST 4:59 PM PST
Nautical Twilight 6:12 AM PST 5:37 PM PST
Astronomical Twilight 5:35 AM PST 6:15 PM PST
Moon 2:54 AM PST (11/21) 2:03 PM PST (11/21)
Length of Visible Light 10h 07m
Length of Day
8h 58m
Waning Crescent, 16% of the Moon is Illuminated
Nov 21
Waning Crescent
Nov 24
New
Dec 2
First Quarter
Dec 10
Full
Dec 17
Last Quarter

Hourly Weather History & Observations

Time (PST) Temp. Windchill Dew Point Humidity Pressure Visibility Wind Dir Wind Speed Gust Speed Precip Events Conditions
12:15 AM 35.6 °F 30.7 °F 30.2 °F 81% 29.78 in 10.0 mi SSE 5.8 mph - 0.00 in   Scattered Clouds
12:35 AM 35.6 °F 30.7 °F 32.0 °F 87% 29.78 in 10.0 mi South 5.8 mph - 0.00 in   Partly Cloudy
12:55 AM 35.6 °F 32.8 °F 32.0 °F 87% 29.78 in 10.0 mi SE 3.5 mph - 0.00 in   Clear
1:15 AM 33.8 °F 30.8 °F 32.0 °F 93% 29.77 in 10.0 mi South 3.5 mph - 0.00 in   Partly Cloudy
1:35 AM 33.8 °F - 32.0 °F 93% 29.77 in 10.0 mi Calm Calm - 0.00 in   Scattered Clouds
1:55 AM 35.6 °F 31.7 °F 30.2 °F 81% 29.75 in 10.0 mi ENE 4.6 mph - 0.00 in   Scattered Clouds
2:15 AM 37.4 °F 32.1 °F 30.2 °F 75% 29.74 in 10.0 mi East 6.9 mph - 0.00 in   Partly Cloudy
2:35 AM 37.4 °F 34.9 °F 30.2 °F 75% 29.73 in 10.0 mi East 3.5 mph - 0.00 in   Clear
2:55 AM 37.4 °F 34.9 °F 30.2 °F 75% 29.72 in 10.0 mi ESE 3.5 mph - 0.00 in   Clear
3:15 AM 37.4 °F 32.1 °F 32.0 °F 81% 29.70 in 10.0 mi ESE 6.9 mph - 0.00 in   Scattered Clouds
3:35 AM 37.4 °F 32.8 °F 32.0 °F 81% 29.69 in 10.0 mi ESE 5.8 mph - 0.00 in   Mostly Cloudy
3:55 AM 37.4 °F 32.8 °F 32.0 °F 81% 29.67 in 10.0 mi East 5.8 mph - 0.00 in   Scattered Clouds
4:15 AM 37.4 °F 29.3 °F 32.0 °F 81% 29.65 in 10.0 mi East 12.7 mph - 0.00 in   Scattered Clouds
4:35 AM 37.4 °F 30.8 °F 32.0 °F 81% 29.64 in 10.0 mi ESE 9.2 mph - 0.00 in   Scattered Clouds
4:55 AM 39.2 °F 37.0 °F 32.0 °F 75% 29.62 in 10.0 mi East 3.5 mph - 0.00 in   Mostly Cloudy
5:15 AM 39.2 °F 34.2 °F 32.0 °F 75% 29.61 in 10.0 mi East 6.9 mph - 0.00 in   Overcast
5:35 AM 44.6 °F 37.4 °F 32.0 °F 61% 29.60 in 10.0 mi SSE 16.1 mph 25.3 mph 0.00 in   Overcast
5:55 AM 44.6 °F 36.6 °F 33.8 °F 66% 29.62 in 8.0 mi South 19.6 mph 25.3 mph 0.00 in   Overcast
6:15 AM 42.8 °F 37.0 °F 35.6 °F 76% 29.62 in 8.0 mi SSE 10.4 mph 19.6 mph 0.00 in   Overcast
6:35 AM 41.0 °F 34.3 °F 37.4 °F 87% 29.63 in 5.0 mi SSE 11.5 mph - 0.00 in   Overcast
6:55 AM 41.0 °F 33.5 °F 39.2 °F 93% 29.62 in 5.0 mi SE 13.8 mph 21.9 mph 0.02 in   Overcast
7:15 AM 41.0 °F 33.9 °F 39.2 °F 93% 29.62 in 6.0 mi SE 12.7 mph 20.7 mph 0.00 in   Overcast
7:35 AM 41.0 °F 34.3 °F 39.2 °F 93% 29.62 in 9.0 mi SE 11.5 mph 20.7 mph 0.01 in   Overcast
7:55 AM 41.0 °F 33.9 °F 39.2 °F 93% 29.64 in 10.0 mi SSE 12.7 mph 20.7 mph 0.01 in   Overcast
8:15 AM 41.0 °F 33.1 °F 39.2 °F 93% 29.66 in 10.0 mi SSE 15.0 mph 21.9 mph 0.00 in   Overcast
8:35 AM 41.0 °F 33.1 °F 39.2 °F 93% 29.66 in 10.0 mi SE 15.0 mph 20.7 mph 0.00 in   Overcast
8:55 AM 41.0 °F 33.9 °F 39.2 °F 93% 29.67 in 10.0 mi SSE 12.7 mph 20.7 mph 0.00 in   Overcast
9:15 AM 42.8 °F 36.2 °F 39.2 °F 87% 29.68 in 10.0 mi SSE 12.7 mph 18.4 mph 0.00 in   Overcast
9:35 AM 42.8 °F 35.8 °F 39.2 °F 87% 29.69 in 10.0 mi SSE 13.8 mph 20.7 mph 0.00 in   Overcast
9:55 AM 42.8 °F 37.0 °F 39.2 °F 87% 29.69 in 10.0 mi SSE 10.4 mph 24.2 mph 0.00 in   Overcast
10:35 AM 42.8 °F 37.0 °F 41.0 °F 93% 29.71 in 10.0 mi SE 10.4 mph - 0.00 in   Overcast
11:15 AM 44.6 °F 39.2 °F 42.8 °F 93% 29.71 in 10.0 mi SSE 10.4 mph 18.4 mph 0.00 in   Overcast
11:35 AM 46.4 °F 40.4 °F 42.8 °F 87% 29.72 in 10.0 mi SSE 13.8 mph 19.6 mph 0.00 in   Overcast
11:55 AM 46.4 °F 40.7 °F 42.8 °F 87% 29.73 in 10.0 mi SE 12.7 mph 19.6 mph 0.00 in   Overcast
12:15 PM 46.4 °F 41.1 °F 42.8 °F 87% 29.73 in 10.0 mi SSE 11.5 mph 18.4 mph 0.00 in   Overcast
12:35 PM 46.4 °F 40.7 °F 42.8 °F 87% 29.72 in 10.0 mi SE 12.7 mph 19.6 mph 0.00 in   Overcast
12:55 PM 46.4 °F 42.4 °F 42.8 °F 87% 29.71 in 10.0 mi SSE 8.1 mph 19.6 mph 0.00 in   Overcast
1:15 PM 46.4 °F 40.1 °F 42.8 °F 87% 29.71 in 10.0 mi SSE 15.0 mph 23.0 mph 0.00 in   Overcast
1:35 PM 46.4 °F 40.1 °F 42.8 °F 87% 29.70 in 10.0 mi SE 15.0 mph 23.0 mph 0.00 in   Overcast
1:55 PM 46.4 °F 40.1 °F 42.8 °F 87% 29.69 in 10.0 mi SE 15.0 mph 19.6 mph 0.00 in   Overcast
2:15 PM 48.2 °F - 42.8 °F 82% 29.69 in 9.0 mi SSE 13.8 mph 26.5 mph 0.00 in   Overcast
2:35 PM 48.2 °F - 41.0 °F 76% 29.67 in 10.0 mi SSE 12.7 mph 23.0 mph 0.00 in   Overcast
2:55 PM 48.2 °F - 41.0 °F 76% 29.67 in 9.0 mi South 11.5 mph 24.2 mph 0.00 in   Overcast
3:15 PM 48.2 °F - 41.0 °F 76% 29.66 in 9.0 mi SE 11.5 mph 25.3 mph 0.00 in   Overcast
3:55 PM 48.2 °F - 42.8 °F 82% 29.65 in 9.0 mi SSE 15.0 mph 24.2 mph 0.00 in   Scattered Clouds
4:15 PM 48.2 °F - 42.8 °F 82% 29.64 in 10.0 mi SE 18.4 mph 26.5 mph 0.00 in   Scattered Clouds
4:35 PM 46.4 °F 40.4 °F 42.8 °F 87% 29.63 in 9.0 mi SE 13.8 mph 19.6 mph 0.00 in   Scattered Clouds
4:55 PM 48.2 °F - 42.8 °F 82% 29.63 in 10.0 mi SSE 16.1 mph 23.0 mph 0.00 in   Mostly Cloudy
5:15 PM 48.2 °F - 42.8 °F 82% 29.62 in 10.0 mi SE 19.6 mph 24.2 mph 0.00 in   Mostly Cloudy
5:35 PM 48.2 °F - 42.8 °F 82% 29.61 in 10.0 mi ESE 16.1 mph 27.6 mph 0.00 in   Mostly Cloudy
6:15 PM 48.2 °F - 42.8 °F 82% 29.58 in 10.0 mi SSE 16.1 mph 25.3 mph 0.00 in   Mostly Cloudy
6:35 PM 50.0 °F - 42.8 °F 76% 29.57 in 10.0 mi SE 19.6 mph 26.5 mph 0.00 in   Scattered Clouds
6:55 PM 50.0 °F - 42.8 °F 76% 29.56 in 10.0 mi SE 21.9 mph 32.2 mph 0.00 in   Partly Cloudy
7:15 PM 50.0 °F - 44.6 °F 82% 29.56 in 10.0 mi SSE 21.9 mph 31.1 mph 0.00 in   Scattered Clouds
7:35 PM 48.2 °F - 44.6 °F 87% 29.56 in 10.0 mi SSE 19.6 mph 27.6 mph 0.00 in   Mostly Cloudy
7:55 PM 48.2 °F - 44.6 °F 87% 29.56 in 8.0 mi SE 20.7 mph 32.2 mph 0.00 in   Overcast
8:15 PM 48.2 °F - 44.6 °F 87% 29.55 in 10.0 mi SE 23.0 mph 29.9 mph 0.00 in   Overcast
8:35 PM 48.2 °F - 44.6 °F 87% 29.54 in 10.0 mi SE 17.3 mph 29.9 mph 0.00 in   Overcast
8:55 PM 50.0 °F - 42.8 °F 76% 29.52 in 10.0 mi SE 18.4 mph 33.4 mph 0.00 in   Mostly Cloudy
9:15 PM 51.8 °F - 42.8 °F 71% 29.51 in 10.0 mi SE 20.7 mph 33.4 mph 0.00 in   Mostly Cloudy
9:35 PM 51.8 °F - 42.8 °F 71% 29.50 in 10.0 mi SSE 24.2 mph 34.5 mph 0.00 in   Mostly Cloudy
9:55 PM 51.8 °F - 42.8 °F 71% 29.49 in 10.0 mi SE 24.2 mph 31.1 mph 0.00 in   Overcast
10:15 PM 51.8 °F - 42.8 °F 71% 29.50 in 10.0 mi SSE 21.9 mph 35.7 mph 0.00 in   Mostly Cloudy
10:35 PM 51.8 °F - 42.8 °F 71% 29.49 in 10.0 mi SSE 20.7 mph 32.2 mph 0.00 in   Overcast
10:55 PM 51.8 °F - 42.8 °F 71% 29.47 in 10.0 mi SSE 24.2 mph 32.2 mph 0.00 in   Overcast
11:15 PM 51.8 °F - 42.8 °F 71% 29.46 in 10.0 mi SE 23.0 mph 32.2 mph 0.00 in   Mostly Cloudy
11:35 PM 51.8 °F - 42.8 °F 71% 29.46 in 10.0 mi SE 21.9 mph 31.1 mph 0.00 in   Mostly Cloudy
11:55 PM 51.8 °F - 42.8 °F 71% 29.45 in 10.0 mi SSE 21.9 mph 33.4 mph 0.00 in   Mostly Cloudy